Weather in Dzhanay

Russia / Astrakhan Oblast     46°37′44″N   48°13′08″E
temp.,
°C
wind,
m/s
gust,
m/s
humid.,
%
clouds,
%
prec.,
mm/h
press.,
hPa
HPBL,
m
26 july, mon
mon2601:00+27ene58310 0.0 1017214
04:00+25ene46340 0.0 1018105
07:00+26ene48360 0.0 1019351
10:00+31e56250 0.0 10191347
13:00+33ene55210 0.0 10192639
16:00+33ne65200 0.0 10172901
19:00+32ne66231 0.0 10171752
22:00+29ne6102650 0.0 1018348
27 july, tue
tue2701:00+27ene7122499 0.0 1018446
04:00+25e5925100 0.0 1018351
07:00+25e5927100 0.0 1019572
10:00+27e5723100 0.0 10191456
13:00+29ne6720100 0.0 10182344
16:00+29ne5520100 0.0 10162537
19:00+28nne5822100 0.0 1016423
22:00+27n3523100 0.0 1016120
28 july, wed
wed2801:00+25nne4827100 0.0 1016168
04:00+23n4730100 0.0 1016113
07:00+24nne3734100 0.0 1017216
10:00+29nne4524100 0.0 10162489
13:00+31n6523100 0.0 10162836
16:00+31n562160 0.0 10153160
19:00+30nne45234 0.0 10142163
22:00+26n33286 0.0 101520
29 july, thu
thu2901:00+25n22300 0.0 101517
04:00+24ne233327 0.0 101430
07:00+26se23330 0.0 101586
10:00+31se23220 0.0 10152724
13:00+33ene32195 0.0 10143216
16:00+34ne451833 0.0 10133233
19:00+32sse552244 0.0 10121498
22:00+26ssw611365 0.0 1014320
30 july, fri
fri3001:00+24sw511491 0.0 1013248
04:00+23sw49520 0.0 1013164
07:00+24sw37450 0.0 1014185
10:00+32wsw44220 0.0 1014995
13:00+35wsw12170 0.0 10133206
16:00+36nne13162 0.0 10113649
19:00+33s99200 0.0 10121119
22:00+26s59300 0.0 1013187